Date String (YYYY-MM-DD hh:mm:ss) UTC,Instrument flags,Ambient pressure (hPa),Sample flow (lpm),Bypass flow (lpm),Sample temperature (°C),Ambient temperature (°C),ASC tube jacket temperature (°C),LED temperature (°C),Box temperature (°C),Sample RH (%),Span deviation,Mass concentration (μg/m³),Mass concentration (μg/m³),Mass concentration (μg/m³)
DateTimeUTC,F1_M11,P_M11,Q1_M11,Q2_M11,T1_M11,T2_M11,T3_M11,T4_M11,T5_M11,U1_M11,ZSPAN_M11,X0_M11,X2_M11,X1_M11
2022-06-30 18:00:00,,0830.3,5.00,0.00,29.3,27.3,00.0,38.0,31.1,24.4,0000.0,0002.05,0001.15,0000.85
2022-06-30 18:01:00,,0830.2,5.01,0.00,29.3,27.4,00.0,38.0,31.1,24.6,0000.0,0001.93,0001.11,0000.85
2022-06-30 18:02:00,,0830.3,4.99,0.00,29.3,27.6,00.0,38.0,31.1,24.5,0000.0,0001.87,0001.12,0000.86
2022-06-30 18:03:00,,0830.3,5.00,0.00,29.3,27.7,00.0,38.0,31.2,24.2,0000.0,0001.93,0001.16,0000.88
2022-06-30 18:04:00,,0830.3,5.00,0.00,29.3,27.8,00.0,38.0,31.2,24.6,0000.0,0002.10,0001.22,0000.89
2022-06-30 18:05:00,,0830.4,4.99,0.00,29.3,27.9,00.0,38.1,31.2,24.8,0000.0,0002.23,0001.27,0000.89
2022-06-30 18:06:00,,0830.4,5.00,0.00,29.3,28.1,00.0,38.1,31.3,24.5,0000.0,0002.17,0001.27,0000.89
2022-06-30 18:07:00,,0830.4,5.00,0.00,29.3,28.2,00.0,38.1,31.3,24.9,0000.0,0002.24,0001.31,0000.91
2022-06-30 18:08:00,,0830.4,5.01,0.00,29.4,28.3,00.0,38.1,31.3,25.3,0000.0,0002.30,0001.33,0000.93
2022-06-30 18:09:00,,0830.5,5.00,0.00,29.4,28.4,00.0,38.1,31.4,25.3,0000.0,0002.19,0001.33,0000.94
2022-06-30 18:10:00,,0830.5,5.00,0.00,29.4,28.4,00.0,38.1,31.4,25.1,0000.0,0002.12,0001.32,0000.94
2022-06-30 18:11:00,,0830.5,5.00,0.00,29.5,28.5,00.0,38.1,31.4,25.2,0000.0,0002.10,0001.31,0000.95
2022-06-30 18:12:00,,0830.5,5.00,0.00,29.5,28.2,00.0,38.1,31.4,24.7,0000.0,0002.16,0001.32,0000.95
2022-06-30 18:13:00,,0830.5,5.00,0.00,29.5,27.4,00.0,38.1,31.3,24.5,0000.0,0002.27,0001.36,0000.94
2022-06-30 18:14:00,,0830.5,5.00,0.00,29.4,26.9,00.0,38.0,31.1,24.3,0000.0,0002.30,0001.36,0000.93
2022-06-30 18:15:00,,0830.6,4.99,0.00,29.3,26.8,00.0,38.0,31.1,24.3,0000.0,0002.17,0001.31,0000.93
2022-06-30 18:16:00,,0830.6,4.99,0.00,29.2,26.9,00.0,38.0,31.0,24.2,0000.0,0002.08,0001.27,0000.92
2022-06-30 18:17:00,,0830.6,5.00,0.00,29.2,27.1,00.0,38.0,31.0,24.2,0000.0,0002.07,0001.27,0000.92
2022-06-30 18:18:00,,0830.6,5.00,0.00,29.2,27.2,00.0,38.0,31.0,24.6,0000.0,0002.08,0001.27,0000.92
2022-06-30 18:19:00,,0830.6,5.00,0.00,29.2,27.4,00.0,38.0,31.1,25.4,0000.0,0002.05,0001.26,0000.92
2022-06-30 18:20:00,,0830.6,4.99,0.00,29.2,27.6,00.0,38.0,31.1,25.7,0000.0,0001.99,0001.26,0000.91
2022-06-30 18:21:00,,0830.6,4.99,0.00,29.2,27.7,00.0,38.0,31.1,25.2,0000.0,0001.94,0001.24,0000.91
2022-06-30 18:22:00,,0830.7,5.00,0.00,29.2,27.9,00.0,38.0,31.2,25.3,0000.0,0002.03,0001.26,0000.91
2022-06-30 18:23:00,,0830.7,5.00,0.00,29.3,28.0,00.0,38.0,31.2,25.1,0000.0,0001.99,0001.25,0000.90
2022-06-30 18:24:00,,0830.7,5.00,0.00,29.3,28.1,00.0,38.0,31.2,25.7,0000.0,0001.98,0001.24,0000.91
2022-06-30 18:25:00,,0830.7,5.01,0.00,29.3,28.2,00.0,38.0,31.3,26.0,0000.0,0001.98,0001.23,0000.91
2022-06-30 18:26:00,,0830.7,4.99,0.00,29.3,28.3,00.0,38.1,31.3,26.6,0000.0,0002.45,0001.25,0000.91
2022-06-30 18:27:00,,0830.7,5.00,0.00,29.4,28.4,00.0,38.1,31.4,25.9,0000.0,0002.55,0001.28,0000.92
2022-06-30 18:28:00,,0830.7,4.99,0.00,29.4,28.5,00.0,38.1,31.4,26.5,0000.0,0002.47,0001.25,0000.92
2022-06-30 18:29:00,,0830.7,5.00,0.00,29.4,28.5,00.0,38.1,31.4,25.6,0000.0,0002.50,0001.24,0000.92
2022-06-30 18:30:00,,0830.7,5.01,0.00,29.5,28.6,00.0,38.1,31.5,25.3,0000.0,0002.52,0001.25,0000.91
2022-06-30 18:31:00,,0830.6,5.00,0.00,29.5,28.4,00.0,38.1,31.5,24.5,0000.0,0002.63,0001.27,0000.92
2022-06-30 18:32:00,,0830.6,5.00,0.00,29.5,27.6,00.0,38.1,31.3,25.2,0000.0,0002.75,0001.31,0000.91
2022-06-30 18:33:00,,0830.6,5.01,0.00,29.4,27.0,00.0,38.1,31.2,24.8,0000.0,0002.75,0001.31,0000.91
2022-06-30 18:34:00,,0830.6,5.01,0.00,29.3,26.9,00.0,38.1,31.1,25.4,0000.0,0002.74,0001.30,0000.92
2022-06-30 18:35:00,,0830.5,5.00,0.00,29.3,27.0,00.0,38.1,31.0,25.3,0000.0,0002.81,0001.30,0000.92
2022-06-30 18:36:00,,0830.5,5.00,0.00,29.2,27.1,00.0,38.0,31.0,26.0,0000.0,0003.15,0001.30,0000.91
2022-06-30 18:37:00,,0830.5,4.99,0.00,29.2,27.3,00.0,38.0,31.0,24.8,0000.0,0002.90,0001.32,0000.92
2022-06-30 18:38:00,,0830.4,4.99,0.00,29.2,27.5,00.0,38.0,31.1,25.2,0000.0,0002.74,0001.30,0000.91
2022-06-30 18:39:00,,0830.4,5.00,0.00,29.2,27.6,00.0,38.0,31.1,25.5,0000.0,0002.72,0001.29,0000.90
2022-06-30 18:40:00,,0830.4,5.01,0.00,29.2,27.8,00.0,38.0,31.2,25.8,0000.0,0003.46,0001.27,0000.90
2022-06-30 18:41:00,,0830.4,5.00,0.00,29.3,27.9,00.0,38.0,31.2,27.0,0000.0,0003.78,0001.28,0000.90
2022-06-30 18:42:00,,0830.5,5.00,0.00,29.3,28.0,00.0,38.0,31.2,26.0,0000.0,0003.71,0001.27,0000.91
2022-06-30 18:43:00,,0830.5,4.99,0.00,29.3,28.2,00.0,38.1,31.3,24.7,0000.0,0003.69,0001.26,0000.92
2022-06-30 18:44:00,,0830.5,5.00,0.00,29.3,28.3,00.0,38.1,31.3,25.2,0000.0,0003.63,0001.24,0000.92
2022-06-30 18:45:00,,0830.4,4.99,0.00,29.4,28.4,00.0,38.1,31.4,26.2,0000.0,0003.64,0001.25,0000.92
2022-06-30 18:46:00,,0830.3,5.00,0.00,29.4,28.4,00.0,38.1,31.4,25.8,0000.0,0003.99,0001.25,0000.93
2022-06-30 18:47:00,,0830.3,5.01,0.00,29.4,28.5,00.0,38.1,31.4,24.5,0000.0,0003.83,0001.23,0000.94
2022-06-30 18:48:00,,0830.3,5.00,0.00,29.5,28.6,00.0,38.1,31.5,25.0,0000.0,0003.65,0001.19,0000.95
2022-06-30 18:49:00,,0830.2,5.00,0.00,29.5,28.1,00.0,38.1,31.4,24.8,0000.0,0003.63,0001.18,0000.97
2022-06-30 18:50:00,,0830.3,5.01,0.00,29.5,27.6,00.0,38.1,31.3,25.8,0000.0,0003.65,0001.20,0000.98
2022-06-30 18:51:00,,0830.2,4.99,0.00,29.4,27.5,00.0,38.1,31.3,25.5,0000.0,0002.96,0001.22,0001.00
2022-06-30 18:52:00,,0830.2,5.01,0.00,29.4,27.5,00.0,38.1,31.2,25.9,0000.0,0002.67,0001.26,0001.00
2022-06-30 18:53:00,,0830.2,5.00,0.00,29.4,27.6,00.0,38.1,31.2,24.9,0000.0,0002.75,0001.28,0001.01
2022-06-30 18:54:00,,0830.1,4.99,0.00,29.4,27.8,00.0,38.1,31.3,25.1,0000.0,0002.70,0001.26,0001.01
2022-06-30 18:55:00,,0830.1,5.00,0.00,29.4,27.9,00.0,38.1,31.3,24.8,0000.0,0002.72,0001.27,0001.01
2022-06-30 18:56:00,,0830.1,5.00,0.00,29.4,28.0,00.0,38.1,31.3,24.0,0000.0,0002.71,0001.27,0001.02
2022-06-30 18:57:00,,0830.1,5.00,0.00,29.4,28.2,00.0,38.1,31.4,23.8,0000.0,0002.47,0001.27,0001.01
2022-06-30 18:58:00,,0830.1,5.00,0.00,29.4,28.3,00.0,38.2,31.4,24.7,0000.0,0001.98,0001.25,0000.99
2022-06-30 18:59:00,,0830.1,5.00,0.00,29.5,28.4,00.0,38.2,31.4,25.6,0000.0,0002.01,0001.26,0000.97
